Temp
55 55 52 52 51 53 52 54 54 54 53 53 54 53 54 56 55 54 54 55 56 57 57 56 55 55 57 57 58 57 58 58 59 59 59 60 58 59 62 60 59 61 61 61 60 57 56 54 57 59 60 59 61 64 65 67 66 65 63 63 65 65 64
54 53 52 55 53 53 52 54 54 54 52 53 54 54 54 56 57 54 53 54 55 56 57 55 55 55 55 55 55 56 55 55 57 58 58 57 58 58 58 60 61 61 62 61 61 60 57 55 56 57 59 60 60 60 62 63 64 64 65 65 65 66 65
53 51 52 52 52 51 52 52 53 54 53 53 52 53 53 54 54 54 53 53 53 55 55 53 53 53 54 54 54 54 54 54 54 55 56 56 56 57 57 57 57 59 60 60 60 60 59 58 56 57 58 57 57 58 58 61 61 62 64 64 64 65 65
52 53 52 51 51 51 52 51 51 52 52 53 52 53 52 52 53 54 53 53 54 55 53 52 52 52 52 52 52 52 53 53 53 54 54 55 55 55 55 56 56 57 57 56 58 59 59 57 57 57 58 60 59 59 63 63 62 64 66 65 64 64 65
54 54 54 53 52 52 51 52 51 52 52 52 51 53 52 52 52 51 51 51 53 51 51 52 52 52 52 52 52 52 52 51 52 53 52 52 53 53 54 55 55 56 57 57 58 59 58 58 58 57 58 59 59 59 63 62 64 65 65 66 66 65 65
55 55 55 54 52 52 51 51 50 52 51 53 52 52 52 51 52 51 51 51 51 52 51 52 51 51 51 51 51 50 50 51 51 51 51 50 51 52 52 54 55 55 55 57 59 59 59 59 58 56 59 60 57 57 59 60 59 61 65 65 65 64 65
55 55 54 55 53 53 52 53 52 52 52 53 51 51 51 50 51 52 51 50 50 51 51 50 50 50 51 51 51 50 50 50 50 50 50 50 51 51 51 52 53 54 54 56 57 58 58 58 57 57 57 58 59 58 59 57 60 60 60 63 65 66 65
56 55 55 55 54 53 52 53 53 51 51 52 52 52 51 50 50 49 50 49 50 49 50 50 52 49 49 50 51 50 50 50 49 50 49 49 51 50 50 51 52 52 53 54 55 56 57 58 57 57 57 55 56 57 57 59 58 59 62 62 64 66 66
57 56 55 55 54 54 53 54 53 52 53 52 51 51 51 51 50 51 51 49 49 49 49 49 48 49 48 50 48 48 48 51 49 48 48 48 48 48 49 50 50 50 52 53 54 54 55 56 56 57 57 56 54 53 55 55 55 56 60 59 60 63 64
55 55 55 54 54 53 53 53 53 52 51 51 52 51 51 49 49 49 49 49 48 48 48 49 48 48 48 48 48 48 48 48 49 48 48 48 48 49 49 49 49 50 50 51 52 53 53 53 54 56 57 56 55 53 53 53 55 55 56 59 57 58 62
56 56 56 55 53 53 52 53 51 52 51 52 53 54 50 49 50 52 48 48 47 48 47 48 47 47 48 47 46 48 48 47 48 48 49 49 48 49 49 49 48 49 50 50 51 51 52 52 52 53 54 55 56 54 54 53 55 57 56 55 59 58 58
55 56 55 55 54 54 53 52 52 52 50 51 53 51 50 49 49 48 47 46 47 47 47 48 47 47 47 48 48 49 48 47 47 47 47 48 49 49 47 47 47 48 48 48 49 49 50 51 51 52 52 53 54 54 54 54 52 58 60 59 57 59 59
55 55 54 54 53 54 54 53 52 50 51 52 51 51 50 50 49 47 47 47 46 46 47 47 46 47 46 47 46 47 47 46 47 46 47 47 49 48 47 46 47 47 47 47 47 48 48 49 50 50 51 52 52 53 54 53 52 53 60 60 60 60 60
54 54 53 54 54 53 53 53 52 53 51 50 50 50 49 48 47 47 47 48 46 47 47 47 45 45 45 45 45 45 45 46 46 46 47 47 47 47 47 47 47 47 47 46 47 48 48 48 48 48 49 50 50 52 52 52 51 52 57 60 59 59 60
54 53 53 52 53 53 52 53 52 51 52 50 50 50 48 47 46 46 46 47 47 46 46 45 45 46 46 44 43 45 45 44 44 45 45 46 46 47 47 46 47 47 47 47 46 47 47 47 47 47 48 48 48 49 52 52 51 51 52 56 56 58 58
53 53 53 52 52 52 52 51 52 52 51 49 49 50 48 48 47 46 46 46 45 45 46 46 45 45 45 45 44 43 45 44 44 45 44 45 45 46 45 46 46 46 48 47 47 47 47 47 47 47 47 48 47 48 50 52 51 50 51 53 56 56 57
53 53 52 51 51 51 51 51 51 52 51 49 49 48 48 48 47 46 46 44 43 44 45 45 45 44 45 45 43 44 43 43 44 44 45 45 45 45 45 45 45 46 46 46 47 47 47 47 47 47 47 47 47 48 49 49 51 51 52 51 54 55 57
52 52 52 50 50 50 50 50 50 51 49 49 48 48 47 46 46 45 46 45 44 44 44 43 44 43 43 43 43 44 43 43 43 44 44 45 47 46 46 47 49 49 49 49 49 48 48 46 48 48 47 47 47 48 49 49 49 52 51 49 50 53 56
51 50 51 50 50 50 50 50 50 49 50 49 46 47 47 46 47 45 45 44 44 43 42 42 43 43 43 42 42 42 43 43 44 44 44 45 45 46 46 48 50 51 51 50 49 50 50 49 50 49 49 49 49 48 47 47 48 48 48 49 49 49 52
51 51 51 51 51 50 50 50 50 49 49 48 47 45 44 46 45 46 45 44 44 44 43 42 42 41 42 42 42 42 43 43 43 43 44 45 45 45 47 48 48 50 50 51 50 50 50 50 50 50 50 50 51 50 48 47 46 46 46 47 48 49 49
53 53 52 52 52 51 50 49 49 48 48 47 46 46 46 46 45 45 45 44 44 43 42 42 41 41 41 42 42 43 43 43 43 43 43 44 45 45 45 46 46 47 47 48 49 50 50 50 50 49 50 50 50 49 48 48 47 46 46 46 45 45 47
51 52 52 52 52 52 51 50 48 48 47 47 47 46 46 45 45 43 42 43 43 43 43 43 43 43 42 42 41 42 43 43 43 43 43 43 43 44 44 45 45 45 48 50 48 47 47 47 47 47 48 48 48 47 46 47 47 46 46 45 45 46 45
52 51 51 51 52 52 51 50 49 48 46 46 46 45 45 44 44 43 42 41 40 42 42 42 46 46 45 44 43 43 43 43 42 42 42 42 42 42 43 43 45 49 48 48 46 45 44 45 46 46 46 47 47 47 46 46 46 46 45 45 45 45 44
51 51 51 51 51 51 50 49 48 47 46 46 46 46 44 43 41 41 42 41 41 41 42 44 45 42 41 43 43 42 41 41 41 41 41 41 41 42 42 42 42 45 47 46 46 45 43 43 43 43 43 44 45 46 46 45 45 45 44 45 46 45 45
51 51 51 51 50 51 50 49 48 47 46 46 45 44 42 41 41 41 41 39 39 41 42 45 42 41 41 41 43 43 41 41 41 41 41 40 41 41 41 41 42 43 44 44 45 45 45 44 43 43 43 42 42 42 43 45 45 45 45 45 44 45 45
50 49 50 50 49 49 48 48 46 46 47 47 44 42 41 42 42 40 41 39 39 40 40 43 41 41 41 41 41 42 41 40 40 40 40 40 40 40 40 41 41 42 43 46 47 45 44 44 44 43 43 43 43 43 41 40 41 45 47 45 44 44 45
51 50 50 49 49 48 48 47 46 47 46 43 42 42 41 42 41 40 38 38 38 38 37 42 41 41 41 41 40 41 40 40 39 39 40 40 40 40 40 41 41 41 41 42 43 42 42 42 42 43 43 43 43 44 43 42 42 41 42 45 45 45 47
49 50 50 49 49 48 47 45 45 45 44 43 42 42 42 42 40 39 39 37 36 37 39 41 40 41 41 41 40 40 39 39 39 39 39 39 40 40 40 40 40 40 41 40 42 42 41 41 41 42 42 42 43 43 44 44 45 46 46 46 46 46 47
46 46 47 47 47 46 45 44 43 42 41 40 41 41 40 41 40 39 38 35 36 35 36 39 40 40 40 40 40 40 38 38 38 38 38 39 39 40 40 40 40 40 40 40 42 41 42 43 41 41 40 41 41 42 43 45 45 45 47 47 47 48 49
46 46 46 46 44 44 44 42 41 42 42 41 41 41 40 39 40 39 37 35 34 34 34 39 40 40 40 40 40 38 37 37 37 37 38 39 39 39 40 40 40 40 40 40 41 40 40 41 40 40 40 40 40 41 41 44 44 43 43 43 43 43 43
49 48 48 46 44 43 42 42 42 43 43 40 39 40 39 39 38 38 37 35 35 34 34 38 40 40 40 40 40 38 37 37 36 37 37 38 38 38 39 43 44 41 40 40 41 39 39 40 39 39 39 39 38 38 40 42 43 44 43 43 42 42 42
49 47 46 44 43 43 43 43 42 41 42 41 41 38 40 39 37 35 36 36 41 39 34 37 40 39 40 40 40 38 37 36 36 36 36 36 37 38 38 41 42 42 42 41 40 39 39 39 39 39 39 39 38 38 39 41 42 42 44 44 45 44 43
47 46 45 44 44 44 43 42 41 41 40 39 38 36 39 37 37 37 36 37 37 36 35 34 36 39 40 40 40 40 38 36 35 36 36 37 37 39 40 40 41 40 39 39 39 38 38 39 39 39 40 38 38 37 41 41 42 43 43 44 44 45 45
46 45 45 45 44 43 43 42 40 39 38 36 35 35 36 36 36 35 34 33 32 32 34 34 36 39 39 40 40 39 37 37 36 36 36 37 38 38 38 39 39 40 39 39 39 38 38 38 39 40 39 39 39 40 41 40 41 42 42 43 43 44 44
45 45 45 45 44 42 41 41 41 39 38 35 35 34 33 35 34 33 32 32 32 32 35 40 35 39 39 40 39 39 38 38 38 37 36 37 37 37 38 38 39 39 39 38 38 38 38 38 38 39 39 39 39 38 40 41 41 41 41 41 42 42 43
46 46 44 44 43 41 38 38 36 36 35 33 33 32 32 31 32 32 32 33 31 30 31 34 39 37 39 39 39 39 38 38 38 38 36 36 37 37 39 39 39 39 38 38 38 37 38 37 38 38 38 37 37 37 38 39 39 39 39 39 39 40 41
45 44 44 43 44 41 38 38 37 37 34 35 34 34 32 33 31 31 32 33 35 31 31 31 36 38 38 38 38 38 38 37 37 37 37 36 37 37 37 38 38 37 37 37 37 37 37 37 37 37 37 37 37 37 38 38 37 38 37 37 37 38 39
MSLP
1017.33 1017.33 1017.49 1017.57 1017.89 1017.97 1017.97 1018.09 1018.09 1018.09 1018.13 1018.21 1018.17 1018.25 1018.33 1018.33 1018.37 1018.49 1018.53 1018.57 1018.61 1018.69 1018.69 1018.89 1019.05 1019.17 1019.17 1019.21 1019.13 1019.13 1019.05 1019.09 1019.21 1019.37 1019.41 1019.29 1019.37 1019.25 1018.97 1019.09 1019.13 1019.13 1019.25 1019.49 1019.53 1019.85 1019.85 1019.77 1018.69 1017.81 1017.57 1017.57 1017.53 1017.45 1017.37 1017.29 1017.25 1017.33 1017.49 1017.57 1017.61 1017.65 1017.69
1017.29 1017.37 1017.57 1017.65 1017.77 1018.01 1017.97 1018.13 1018.13 1018.17 1018.25 1018.29 1018.25 1018.29 1018.37 1018.41 1018.45 1018.57 1018.65 1018.69 1018.77 1018.89 1018.97 1019.05 1019.13 1019.21 1019.29 1019.33 1019.33 1019.33 1019.37 1019.41 1019.37 1019.37 1019.37 1019.49 1019.49 1019.53 1019.37 1019.21 1019.13 1019.09 1019.05 1019.09 1019.17 1019.29 1019.69 1019.81 1019.25 1018.97 1018.41 1017.69 1017.49 1017.37 1017.41 1017.29 1017.21 1017.17 1017.13 1017.21 1017.25 1017.33 1017.45
1017.37 1017.57 1017.65 1017.73 1017.81 1018.01 1017.97 1018.09 1018.21 1018.25 1018.29 1018.37 1018.41 1018.45 1018.49 1018.57 1018.57 1018.65 1018.77 1018.89 1018.97 1019.09 1019.13 1019.21 1019.21 1019.21 1019.29 1019.37 1019.49 1019.53 1019.53 1019.57 1019.61 1019.53 1019.57 1019.61 1019.61 1019.57 1019.53 1019.53 1019.49 1019.37 1019.21 1019.09 1019.09 1019.17 1019.29 1019.41 1019.49 1019.09 1018.73 1018.77 1018.69 1017.73 1017.49 1017.37 1017.25 1017.17 1017.09 1017.01 1017.09 1017.13 1017.17
1017.17 1017.37 1017.69 1017.89 1017.97 1018.09 1018.05 1018.09 1018.17 1018.25 1018.37 1018.45 1018.57 1018.57 1018.61 1018.69 1018.69 1018.77 1018.89 1018.97 1019.05 1019.13 1019.21 1019.25 1019.33 1019.41 1019.49 1019.49 1019.57 1019.57 1019.57 1019.65 1019.73 1019.73 1019.73 1019.77 1019.77 1019.73 1019.69 1019.65 1019.69 1019.73 1019.81 1019.81 1019.57 1019.29 1019.21 1019.17 1019.09 1018.93 1018.81 1018.61 1018.53 1018.25 1017.41 1017.33 1017.33 1017.09 1016.93 1016.85 1016.93 1016.89 1016.89
1016.81 1017.17 1017.37 1017.57 1017.85 1017.89 1018.01 1018.01 1018.17 1018.33 1018.41 1018.53 1018.65 1018.69 1018.69 1018.77 1018.73 1018.85 1018.93 1019.01 1019.05 1019.13 1019.25 1019.37 1019.49 1019.53 1019.57 1019.57 1019.57 1019.61 1019.69 1019.81 1019.81 1019.81 1019.89 1019.89 1019.89 1019.93 1019.93 1019.89 1019.85 1019.77 1019.65 1019.65 1019.49 1019.37 1019.25 1019.13 1019.17 1018.97 1018.89 1018.49 1018.29 1018.09 1017.37 1017.33 1017.21 1017.05 1016.81 1016.69 1016.61 1016.61 1016.53
1016.65 1016.89 1017.13 1017.33 1017.65 1017.81 1018.01 1018.09 1018.17 1018.21 1018.37 1018.49 1018.61 1018.69 1018.73 1018.77 1018.73 1018.77 1018.85 1018.89 1018.97 1019.01 1019.09 1019.13 1019.33 1019.41 1019.49 1019.53 1019.65 1019.69 1019.77 1019.81 1019.93 1019.93 1019.97 1020.05 1020.05 1020.09 1020.13 1020.05 1019.97 1019.89 1019.89 1019.65 1019.49 1019.37 1019.13 1018.97 1018.97 1018.97 1018.61 1018.45 1018.57 1018.09 1017.65 1017.53 1017.33 1016.73 1016.49 1016.45 1016.33 1016.33 1016.29
1016.45 1016.73 1016.97 1017.09 1017.45 1017.61 1017.85 1017.81 1017.97 1018.05 1018.21 1018.25 1018.41 1018.53 1018.65 1018.77 1018.85 1018.85 1018.93 1019.01 1019.09 1019.13 1019.17 1019.29 1019.41 1019.53 1019.57 1019.65 1019.69 1019.77 1019.89 1020.01 1020.01 1020.05 1020.05 1020.09 1020.09 1020.13 1020.13 1020.09 1020.05 1020.01 1019.93 1019.77 1019.65 1019.45 1019.29 1019.09 1018.97 1018.85 1018.61 1018.29 1018.25 1018.13 1017.73 1017.53 1017.13 1017.25 1016.49 1016.17 1016.09 1016.05 1016.01
1016.09 1016.49 1016.69 1016.89 1017.17 1017.45 1017.77 1017.73 1017.81 1018.05 1018.13 1018.25 1018.29 1018.37 1018.65 1018.77 1018.85 1018.93 1018.97 1019.01 1019.05 1019.05 1019.13 1019.25 1019.49 1019.65 1019.81 1019.89 1019.97 1020.05 1020.05 1020.13 1020.17 1020.13 1020.17 1020.17 1020.17 1020.17 1020.13 1020.13 1020.09 1020.01 1019.97 1019.85 1019.73 1019.61 1019.41 1019.25 1019.17 1018.97 1018.81 1018.65 1018.17 1018.01 1017.85 1017.41 1017.25 1017.21 1016.85 1016.21 1016.09 1016.01 1015.93
1015.81 1016.17 1016.53 1016.81 1017.01 1017.17 1017.37 1017.49 1017.61 1017.89 1018.01 1018.17 1018.41 1018.53 1018.65 1018.69 1018.73 1018.85 1018.93 1018.97 1019.01 1019.05 1019.13 1019.21 1019.33 1019.49 1019.69 1019.85 1020.09 1020.25 1020.25 1020.33 1020.21 1020.21 1020.29 1020.25 1020.21 1020.21 1020.17 1020.13 1020.09 1020.09 1019.97 1019.85 1019.77 1019.73 1019.65 1019.57 1019.45 1019.25 1019.05 1018.85 1018.69 1018.25 1017.77 1017.69 1017.41 1017.13 1016.57 1016.65 1016.01 1015.81 1015.77
1015.85 1016.05 1016.25 1016.53 1016.81 1017.13 1017.25 1017.33 1017.41 1017.65 1017.93 1018.17 1018.33 1018.57 1018.69 1018.85 1018.85 1018.89 1018.97 1019.09 1019.13 1019.21 1019.25 1019.29 1019.37 1019.49 1019.57 1019.69 1019.81 1019.93 1020.13 1020.37 1020.33 1020.33 1020.33 1020.25 1020.29 1020.25 1020.17 1020.17 1020.17 1020.13 1020.01 1019.89 1019.81 1019.73 1019.69 1019.61 1019.49 1019.37 1019.21 1019.13 1018.93 1018.69 1018.25 1017.85 1017.57 1017.41 1016.65 1016.49 1016.57 1015.77 1015.53
1015.65 1015.81 1016.05 1016.33 1016.73 1017.05 1017.29 1017.37 1017.45 1017.73 1017.85 1018.01 1018.21 1018.49 1018.69 1018.81 1018.93 1018.97 1019.09 1019.17 1019.21 1019.25 1019.29 1019.41 1019.45 1019.57 1019.65 1019.65 1019.73 1019.77 1019.85 1020.01 1020.09 1020.21 1020.29 1020.29 1020.29 1020.25 1020.25 1020.25 1020.21 1020.21 1020.05 1019.97 1019.89 1019.77 1019.69 1019.61 1019.53 1019.45 1019.37 1019.21 1019.01 1018.85 1018.37 1017.89 1017.09 1016.89 1016.69 1016.33 1016.25 1016.01 1015.53
1015.65 1015.77 1015.93 1016.17 1016.57 1016.81 1017.05 1017.25 1017.37 1017.53 1017.85 1018.05 1018.17 1018.37 1018.61 1018.73 1018.93 1019.09 1019.09 1019.17 1019.25 1019.29 1019.37 1019.37 1019.49 1019.57 1019.65 1019.61 1019.61 1019.69 1019.73 1019.85 1019.85 1019.93 1020.01 1020.09 1020.13 1020.17 1020.21 1020.25 1020.25 1020.21 1020.13 1020.01 1019.93 1019.85 1019.73 1019.61 1019.53 1019.41 1019.33 1019.25 1019.17 1019.05 1018.81 1018.41 1017.93 1016.37 1016.29 1016.21 1016.01 1015.85 1015.73
1015.49 1015.69 1015.89 1016.09 1016.41 1016.53 1016.77 1017.05 1017.33 1017.61 1017.69 1017.97 1018.05 1018.29 1018.49 1018.69 1018.89 1019.01 1019.17 1019.29 1019.37 1019.45 1019.41 1019.49 1019.61 1019.61 1019.69 1019.77 1019.89 1019.89 1019.89 1019.89 1019.89 1019.89 1019.89 1019.93 1019.93 1019.97 1019.97 1020.05 1020.09 1020.13 1020.05 1020.01 1019.89 1019.81 1019.73 1019.61 1019.53 1019.45 1019.37 1019.25 1019.09 1018.93 1018.73 1018.57 1018.09 1017.17 1016.29 1016.33 1015.89 1015.69 1015.61
1015.37 1015.61 1015.85 1016.01 1016.09 1016.33 1016.53 1016.81 1017.09 1017.25 1017.73 1017.85 1018.13 1018.29 1018.45 1018.65 1018.81 1019.01 1019.21 1019.33 1019.45 1019.53 1019.57 1019.61 1019.85 1019.97 1020.01 1020.05 1020.01 1020.01 1019.93 1019.89 1019.89 1019.89 1019.93 1019.89 1019.89 1019.85 1019.77 1019.77 1019.85 1019.85 1019.85 1019.85 1019.77 1019.69 1019.61 1019.53 1019.45 1019.41 1019.29 1019.25 1019.09 1018.85 1018.77 1018.61 1018.33 1017.61 1016.53 1016.05 1015.89 1015.65 1015.33
1015.01 1015.41 1015.69 1015.97 1016.01 1016.17 1016.37 1016.61 1016.93 1017.29 1017.37 1017.77 1017.97 1018.17 1018.41 1018.69 1018.85 1019.05 1019.17 1019.37 1019.53 1019.65 1019.81 1019.97 1020.09 1020.09 1020.13 1020.13 1020.13 1020.13 1020.09 1020.05 1020.01 1019.97 1019.97 1019.89 1019.89 1019.85 1019.77 1019.69 1019.61 1019.61 1019.57 1019.57 1019.53 1019.53 1019.45 1019.33 1019.29 1019.21 1019.17 1019.13 1019.05 1018.89 1018.65 1018.57 1018.17 1017.81 1017.09 1016.25 1016.01 1015.61 1015.49
1014.93 1015.21 1015.49 1015.89 1016.05 1016.25 1016.41 1016.61 1016.85 1016.97 1017.29 1017.69 1017.97 1018.05 1018.37 1018.61 1018.85 1019.09 1019.25 1019.45 1019.65 1019.85 1019.97 1020.09 1020.21 1020.21 1020.25 1020.29 1020.25 1020.25 1020.21 1020.17 1020.13 1020.09 1020.05 1019.97 1019.89 1019.85 1019.77 1019.69 1019.57 1019.49 1019.41 1019.33 1019.29 1019.29 1019.25 1019.17 1019.09 1019.05 1018.93 1018.85 1018.85 1018.77 1018.61 1018.45 1018.29 1017.85 1017.29 1016.57 1016.17 1015.89 1015.45
1014.89 1015.09 1015.37 1015.81 1016.09 1016.41 1016.61 1016.77 1016.93 1016.97 1017.25 1017.57 1017.77 1018.05 1018.21 1018.53 1018.81 1019.05 1019.29 1019.57 1019.73 1019.89 1020.01 1020.13 1020.25 1020.37 1020.37 1020.41 1020.41 1020.41 1020.37 1020.29 1020.25 1020.17 1020.13 1020.01 1019.93 1019.85 1019.73 1019.65 1019.49 1019.37 1019.29 1019.25 1019.13 1019.09 1019.05 1018.97 1018.93 1018.85 1018.81 1018.69 1018.65 1018.57 1018.45 1018.29 1018.05 1017.89 1017.41 1016.93 1016.01 1016.09 1015.61
1015.17 1015.17 1015.33 1015.77 1016.13 1016.57 1016.77 1016.97 1017.13 1017.17 1017.45 1017.65 1017.81 1018.01 1018.29 1018.45 1018.69 1019.01 1019.25 1019.45 1019.69 1019.85 1020.05 1020.25 1020.33 1020.37 1020.45 1020.49 1020.49 1020.45 1020.37 1020.33 1020.29 1020.21 1020.13 1020.01 1019.89 1019.77 1019.65 1019.49 1019.21 1019.13 1019.13 1019.09 1018.93 1018.89 1018.85 1018.85 1018.77 1018.73 1018.65 1018.57 1018.49 1018.33 1018.21 1018.09 1018.01 1017.73 1017.45 1017.25 1016.69 1016.25 1015.97
1015.41 1015.65 1015.57 1015.69 1016.05 1016.49 1016.85 1017.01 1017.17 1017.33 1017.41 1017.65 1017.97 1018.09 1018.13 1018.45 1018.61 1018.89 1019.13 1019.41 1019.65 1019.89 1020.05 1020.17 1020.25 1020.29 1020.37 1020.41 1020.45 1020.41 1020.37 1020.33 1020.25 1020.17 1020.05 1019.93 1019.81 1019.65 1019.53 1019.25 1019.01 1018.93 1018.89 1018.85 1018.73 1018.61 1018.57 1018.49 1018.45 1018.45 1018.41 1018.33 1018.21 1018.13 1018.05 1017.97 1017.85 1017.77 1017.73 1017.37 1017.01 1016.29 1016.05
1014.33 1015.21 1015.69 1015.77 1015.97 1016.29 1016.61 1016.89 1017.01 1017.21 1017.41 1017.53 1017.85 1018.13 1018.37 1018.49 1018.61 1018.77 1019.13 1019.37 1019.61 1019.73 1019.85 1019.97 1020.09 1020.17 1020.25 1020.29 1020.33 1020.33 1020.29 1020.25 1020.17 1020.05 1019.89 1019.73 1019.61 1019.45 1019.29 1019.13 1018.97 1018.81 1018.73 1018.65 1018.57 1018.49 1018.33 1018.29 1018.21 1018.13 1018.09 1018.01 1017.89 1017.85 1017.85 1017.81 1017.77 1017.73 1017.65 1017.37 1016.89 1016.49 1016.13
1013.25 1013.57 1014.41 1015.17 1015.49 1015.85 1016.29 1016.65 1016.89 1017.17 1017.41 1017.49 1017.77 1018.05 1018.25 1018.41 1018.65 1018.77 1019.01 1019.21 1019.41 1019.57 1019.69 1019.85 1019.97 1020.05 1020.17 1020.25 1020.29 1020.29 1020.29 1020.17 1020.05 1019.93 1019.77 1019.61 1019.45 1019.29 1019.13 1019.01 1018.89 1018.77 1018.73 1018.61 1018.49 1018.29 1018.21 1018.13 1018.05 1018.01 1017.93 1017.97 1017.89 1017.85 1017.73 1017.61 1017.57 1017.53 1017.41 1017.25 1017.01 1016.57 1016.13
1013.61 1013.97 1014.17 1014.41 1014.69 1015.01 1015.45 1016.09 1016.65 1017.05 1017.25 1017.45 1017.73 1017.93 1018.25 1018.45 1018.65 1018.77 1018.97 1019.09 1019.29 1019.57 1019.69 1019.73 1019.81 1019.89 1020.01 1020.13 1020.25 1020.25 1020.25 1020.17 1020.05 1019.89 1019.69 1019.53 1019.33 1019.21 1019.05 1018.89 1018.77 1018.65 1018.53 1018.37 1018.29 1018.29 1018.25 1018.25 1018.21 1018.01 1017.77 1017.89 1017.81 1017.81 1017.65 1017.57 1017.37 1017.29 1017.13 1017.09 1016.77 1016.49 1016.13
1013.21 1013.45 1013.93 1014.21 1014.37 1014.45 1014.81 1015.49 1016.13 1016.73 1017.05 1017.29 1017.57 1017.97 1018.25 1018.41 1018.49 1018.61 1018.85 1019.21 1019.45 1019.53 1019.53 1019.65 1019.73 1019.85 1019.97 1020.05 1020.13 1020.21 1020.21 1020.13 1020.01 1019.85 1019.65 1019.41 1019.21 1019.09 1018.89 1018.73 1018.57 1018.37 1018.25 1018.17 1018.09 1018.05 1017.97 1017.89 1017.85 1017.85 1017.69 1017.65 1017.53 1017.53 1017.45 1017.33 1017.21 1017.09 1016.97 1016.81 1016.57 1016.37 1016.09
1012.89 1013.01 1013.09 1013.65 1013.93 1013.85 1014.09 1014.73 1015.49 1016.13 1016.69 1017.09 1017.45 1017.85 1018.09 1018.25 1018.45 1018.61 1018.81 1019.01 1019.09 1019.25 1019.45 1019.57 1019.65 1019.77 1019.85 1019.89 1020.01 1020.05 1020.05 1019.97 1019.89 1019.73 1019.57 1019.33 1019.09 1018.85 1018.65 1018.53 1018.37 1018.21 1018.01 1017.93 1017.81 1017.73 1017.65 1017.57 1017.49 1017.41 1017.41 1017.41 1017.41 1017.45 1017.29 1017.09 1016.89 1016.89 1016.81 1016.53 1016.13 1016.05 1015.77
1012.89 1012.73 1012.61 1013.01 1013.45 1013.41 1013.69 1014.33 1015.05 1015.57 1016.13 1016.69 1017.17 1017.69 1017.93 1018.17 1018.41 1018.57 1018.65 1018.77 1018.93 1019.17 1019.37 1019.45 1019.53 1019.57 1019.57 1019.61 1019.65 1019.69 1019.73 1019.73 1019.65 1019.57 1019.41 1019.21 1018.97 1018.73 1018.49 1018.29 1018.13 1017.97 1017.77 1017.65 1017.53 1017.41 1017.29 1017.17 1017.09 1017.01 1016.97 1016.97 1016.97 1017.01 1017.09 1017.01 1016.73 1016.49 1016.37 1016.25 1015.93 1015.65 1015.57
1012.81 1013.13 1013.53 1013.77 1014.05 1013.93 1014.09 1014.49 1015.09 1015.53 1015.85 1016.33 1017.05 1017.41 1017.81 1018.09 1018.29 1018.41 1018.45 1018.69 1018.97 1019.13 1019.25 1019.29 1019.33 1019.37 1019.37 1019.37 1019.33 1019.37 1019.45 1019.45 1019.41 1019.29 1019.21 1019.01 1018.85 1018.61 1018.37 1018.09 1017.85 1017.65 1017.49 1017.33 1017.17 1017.05 1016.97 1016.81 1016.69 1016.61 1016.53 1016.45 1016.41 1016.45 1016.53 1016.53 1016.57 1016.45 1016.17 1016.01 1015.77 1015.41 1015.25
1012.13 1012.37 1012.65 1013.21 1013.97 1014.37 1014.37 1014.45 1014.81 1015.33 1016.01 1016.69 1016.97 1017.41 1017.77 1017.89 1018.05 1018.21 1018.37 1018.61 1018.81 1019.01 1019.09 1019.17 1019.25 1019.25 1019.21 1019.13 1019.09 1019.17 1019.25 1019.21 1019.17 1019.05 1018.93 1018.77 1018.57 1018.33 1018.09 1017.85 1017.57 1017.33 1017.21 1017.13 1016.97 1016.85 1016.73 1016.57 1016.41 1016.25 1016.09 1016.01 1015.89 1015.81 1015.85 1015.89 1015.89 1015.89 1015.93 1015.65 1015.29 1014.89 1014.41
1012.21 1012.09 1012.41 1012.85 1013.49 1014.13 1014.33 1014.65 1015.01 1015.57 1016.09 1016.49 1016.81 1017.17 1017.45 1017.73 1017.93 1018.05 1018.25 1018.49 1018.73 1018.93 1019.05 1019.09 1019.05 1018.97 1018.89 1018.85 1018.85 1018.97 1019.05 1019.05 1018.97 1018.81 1018.69 1018.49 1018.29 1018.01 1017.77 1017.53 1017.29 1017.01 1016.89 1016.85 1016.73 1016.61 1016.45 1016.29 1016.09 1015.81 1015.61 1015.45 1015.37 1015.25 1015.21 1015.25 1015.29 1015.29 1015.21 1015.05 1014.81 1014.45 1014.21
1013.01 1013.17 1012.93 1013.05 1013.53 1014.09 1014.33 1014.49 1015.01 1015.89 1016.37 1016.77 1016.97 1017.17 1017.41 1017.53 1017.69 1017.81 1018.05 1018.41 1018.73 1018.93 1018.97 1018.85 1018.77 1018.69 1018.65 1018.61 1018.61 1018.77 1018.81 1018.77 1018.65 1018.49 1018.33 1018.17 1017.89 1017.65 1017.41 1017.21 1016.97 1016.73 1016.57 1016.45 1016.29 1016.21 1016.05 1015.93 1015.69 1015.41 1015.13 1014.93 1014.81 1014.69 1014.53 1014.49 1014.61 1014.61 1014.53 1014.41 1014.21 1014.01 1013.81
1012.69 1013.33 1013.53 1013.89 1014.41 1014.17 1014.05 1014.69 1015.41 1015.93 1016.13 1016.57 1016.77 1017.01 1017.17 1017.29 1017.33 1017.53 1017.93 1018.37 1018.69 1018.81 1018.73 1018.57 1018.53 1018.49 1018.45 1018.41 1018.49 1018.57 1018.57 1018.49 1018.37 1018.21 1017.93 1017.69 1017.45 1017.21 1017.01 1016.81 1016.61 1016.37 1016.17 1016.01 1015.85 1015.77 1015.69 1015.65 1015.33 1015.05 1014.81 1014.53 1014.37 1014.25 1013.93 1014.01 1013.97 1013.89 1013.89 1013.81 1013.69 1013.61 1013.57
1011.89 1012.17 1012.45 1013.33 1014.09 1014.37 1014.61 1015.17 1015.73 1016.01 1016.01 1016.53 1016.77 1016.85 1016.97 1017.05 1017.29 1017.49 1017.85 1018.29 1018.49 1018.45 1018.37 1018.33 1018.33 1018.29 1018.25 1018.25 1018.29 1018.37 1018.33 1018.21 1018.01 1017.85 1017.45 1017.21 1017.05 1016.77 1016.53 1016.29 1016.05 1015.89 1015.69 1015.49 1015.41 1015.33 1015.29 1015.33 1015.01 1014.69 1014.53 1014.25 1013.93 1013.73 1013.53 1013.69 1013.57 1013.29 1013.33 1013.21 1013.09 1012.97 1012.89
1011.61 1011.97 1012.61 1013.37 1013.61 1013.81 1014.37 1014.93 1015.61 1016.05 1016.09 1016.29 1016.29 1016.77 1016.97 1017.01 1017.37 1017.65 1017.85 1017.89 1018.05 1018.09 1018.13 1018.13 1018.13 1018.13 1018.09 1018.05 1018.09 1018.13 1018.09 1017.97 1017.77 1017.45 1017.17 1016.81 1016.61 1016.37 1016.09 1015.85 1015.65 1015.49 1015.29 1015.05 1015.05 1014.97 1014.93 1014.97 1014.69 1014.33 1014.21 1013.93 1013.45 1013.17 1013.05 1013.37 1013.13 1012.89 1012.81 1012.61 1012.37 1012.41 1012.21
1011.53 1011.97 1012.89 1013.73 1013.97 1014.17 1014.57 1015.01 1015.45 1015.61 1015.93 1016.05 1016.17 1016.69 1017.01 1017.17 1017.17 1017.37 1017.61 1017.69 1017.73 1017.73 1017.81 1017.89 1017.93 1017.93 1017.93 1017.89 1017.89 1017.89 1017.85 1017.85 1017.49 1017.05 1016.77 1016.49 1016.01 1015.65 1015.53 1015.29 1015.09 1014.97 1014.85 1014.69 1014.61 1014.53 1014.45 1014.49 1014.29 1013.89 1013.81 1013.49 1013.09 1012.61 1012.65 1012.77 1012.53 1012.53 1012.17 1012.01 1011.85 1011.77 1011.53
1011.29 1011.85 1012.53 1013.09 1013.65 1014.21 1014.53 1014.73 1015.29 1015.61 1015.65 1016.21 1016.41 1016.77 1016.97 1017.01 1017.05 1016.97 1017.17 1017.37 1017.53 1017.57 1017.65 1017.69 1017.73 1017.77 1017.77 1017.81 1017.73 1017.77 1017.69 1017.57 1017.21 1016.81 1016.37 1016.01 1015.69 1015.25 1014.93 1014.69 1014.45 1014.37 1014.21 1014.05 1013.97 1013.85 1013.77 1013.73 1013.65 1013.33 1013.01 1012.77 1012.49 1012.25 1012.45 1012.33 1012.05 1012.13 1011.77 1011.53 1011.33 1011.13 1010.97
1011.61 1012.21 1012.81 1012.97 1013.45 1014.01 1014.49 1014.81 1015.05 1015.33 1015.77 1016.05 1016.17 1016.45 1016.77 1016.85 1016.81 1016.81 1016.97 1017.25 1017.37 1017.29 1017.41 1017.45 1017.57 1017.65 1017.65 1017.57 1017.57 1017.45 1017.37 1017.05 1016.81 1016.53 1015.97 1015.57 1015.25 1014.81 1014.49 1014.13 1013.89 1013.65 1013.53 1013.41 1013.29 1013.21 1013.09 1012.97 1012.85 1012.65 1012.09 1012.09 1011.93 1012.05 1011.97 1011.81 1011.65 1011.53 1011.33 1011.13 1011.01 1010.73 1010.49
1011.77 1012.45 1012.85 1013.09 1013.45 1013.89 1014.69 1014.93 1015.29 1015.73 1015.81 1016.01 1016.17 1016.33 1016.49 1016.69 1016.73 1016.69 1016.85 1016.85 1017.01 1017.21 1017.29 1017.37 1017.41 1017.45 1017.41 1017.33 1017.13 1016.97 1016.85 1016.69 1016.41 1016.33 1015.89 1015.21 1014.77 1014.29 1013.89 1013.61 1013.29 1013.13 1013.05 1012.89 1012.73 1012.61 1012.49 1012.37 1012.21 1011.85 1011.65 1011.57 1011.57 1011.57 1011.57 1011.41 1011.25 1011.13 1010.93 1010.73 1010.61 1010.25 1009.97
1012.37 1012.41 1012.93 1013.37 1013.37 1013.73 1014.53 1015.05 1015.41 1015.61 1015.81 1015.85 1016.09 1016.21 1016.37 1016.53 1016.61 1016.57 1016.41 1016.45 1016.57 1016.85 1017.21 1017.37 1017.37 1017.33 1017.17 1017.01 1016.85 1016.73 1016.53 1016.33 1016.17 1015.89 1015.53 1015.01 1014.41 1013.97 1013.57 1013.21 1012.93 1012.77 1012.61 1012.41 1012.21 1012.01 1011.81 1011.69 1011.41 1011.05 1010.97 1010.89 1010.97 1010.97 1010.93 1010.73 1010.69 1010.49 1010.37 1010.21 1010.01 1009.69 1009.45
Wind_Speed
7 7 4 3 1 0 2 1 0 0 2 2 2 3 3 3 4 4 4 4 5 4 5 6 5 4 5 4 4 4 5 6 5 5 4 5 5 4 3 3 2 2 4 5 6 4 4 5 7 3 1 2 3 4 6 7 6 6 6 7 7 7 7
5 4 3 2 3 1 3 1 0 0 1 1 1 1 1 3 3 4 4 4 5 4 5 5 4 5 6 5 6 6 6 5 4 3 3 3 4 4 5 4 4 3 2 3 4 5 4 3 8 5 7 3 2 3 4 4 4 4 5 6 7 7 6
4 3 4 4 4 2 4 2 0 0 1 1 2 1 3 2 4 4 4 5 4 4 5 5 4 5 5 5 4 4 4 5 4 4 4 3 2 2 2 3 4 5 4 1 2 1 4 6 7 7 6 6 8 4 4 4 3 3 4 5 5 6 6
5 6 5 4 3 2 4 4 2 2 0 0 1 1 2 2 3 3 4 4 4 4 4 5 4 4 4 4 3 4 5 5 4 4 4 4 3 3 4 3 3 4 4 4 6 6 5 4 5 6 5 6 8 10 8 4 4 5 4 3 4 5 6
8 7 8 8 7 6 5 5 2 1 1 0 0 0 1 1 3 3 3 3 3 4 4 4 4 4 3 3 4 4 3 3 3 4 4 5 5 4 4 4 3 3 3 4 5 6 6 6 6 8 6 4 5 5 7 5 8 9 7 6 6 6 6
8 8 8 7 6 7 6 4 4 4 2 1 2 1 1 1 2 3 4 4 4 3 4 5 4 4 4 4 3 4 4 4 4 4 4 3 3 4 4 3 3 4 4 4 4 6 6 5 4 7 6 5 7 7 5 3 4 3 4 5 5 6 6
8 8 7 8 7 6 7 7 7 6 6 5 4 4 3 2 1 3 3 3 2 2 4 4 4 4 4 5 4 5 4 3 3 3 3 3 3 3 2 4 4 4 4 4 5 5 6 6 6 6 7 5 5 7 4 2 3 4 3 3 4 5 5
9 8 8 7 7 7 5 6 6 5 6 5 5 4 3 3 3 3 3 3 1 3 3 4 3 3 3 3 4 4 3 3 3 4 3 3 4 3 3 3 3 3 4 5 5 5 5 6 7 8 7 10 7 5 6 4 5 6 10 5 3 4 5
8 8 7 6 6 7 7 7 7 6 6 4 3 2 2 3 4 3 2 3 2 3 4 4 4 3 3 3 3 3 3 1 3 3 2 2 3 3 2 2 3 3 3 4 4 5 5 5 6 7 8 8 9 9 4 5 3 4 5 5 3 5 6
8 10 10 9 8 6 6 7 7 6 4 4 4 3 4 2 3 4 3 2 3 3 3 3 3 4 4 3 3 3 2 1 1 1 1 2 1 1 2 2 2 2 2 3 3 3 4 4 5 5 5 7 8 10 8 6 6 7 3 4 3 3 4
10 9 8 9 7 7 5 5 4 4 5 5 5 4 4 4 3 3 3 2 2 2 2 2 3 3 3 3 3 3 3 2 2 1 0 1 1 1 0 2 2 3 1 1 2 3 3 4 4 4 5 5 6 9 8 11 10 5 7 3 4 5 2
7 8 8 7 7 8 8 6 6 5 4 4 5 5 4 4 3 3 3 3 2 2 1 1 1 1 2 3 4 4 4 4 4 4 3 2 2 1 2 3 2 2 2 2 2 2 3 3 4 4 5 4 5 5 8 9 11 5 3 7 3 4 5
7 8 8 8 8 8 8 7 6 5 6 4 4 5 5 4 4 4 3 3 2 1 0 1 1 2 3 4 4 5 5 4 4 4 4 4 4 4 4 3 3 3 2 2 3 3 2 2 2 4 4 5 5 5 5 8 10 12 8 7 10 8 6
8 7 7 8 9 8 8 7 7 7 5 5 5 5 4 4 4 3 3 3 2 1 0 2 3 4 3 3 4 3 4 4 4 4 4 5 4 4 5 5 4 3 2 3 3 3 3 3 2 3 3 4 5 4 5 6 9 10 9 6 6 6 6
9 7 8 7 8 8 8 8 7 7 7 6 6 6 5 4 4 3 3 2 1 0 0 2 2 2 2 3 3 2 3 3 4 4 4 5 5 5 5 6 6 4 4 4 3 3 3 3 3 3 3 3 4 4 3 6 7 8 11 8 7 6 5
8 8 9 7 7 7 7 7 7 9 7 7 5 7 6 5 4 4 3 2 1 1 0 0 1 0 0 1 2 3 3 3 4 4 4 5 5 5 5 5 6 5 4 5 5 4 3 4 3 4 4 3 4 4 4 5 7 9 9 10 7 8 6
8 9 9 7 7 5 6 6 6 7 7 7 7 5 6 6 5 4 3 2 2 2 1 0 0 0 1 2 3 3 4 4 4 4 5 5 5 5 5 5 5 5 4 6 6 6 4 3 4 4 4 3 4 5 4 4 5 7 8 10 8 6 7
5 8 8 7 6 5 5 6 4 6 6 6 5 6 4 5 5 5 5 4 4 3 2 2 1 2 3 3 3 4 4 4 4 4 5 5 5 6 6 5 6 5 6 7 7 6 5 5 5 4 5 5 5 5 5 4 5 6 7 9 10 7 7
3 3 5 7 7 7 6 6 6 5 6 6 4 4 5 4 5 5 5 5 4 4 4 3 3 3 3 3 3 3 4 4 4 5 5 5 5 5 6 6 6 6 7 7 7 8 7 7 7 7 7 7 6 5 5 5 4 5 6 9 9 11 6
11 7 5 6 7 8 7 7 7 7 5 7 6 4 4 5 4 6 5 5 5 4 4 4 3 3 3 3 4 4 4 5 5 5 4 5 5 5 5 5 5 5 7 7 8 8 8 8 7 8 7 7 6 6 6 6 6 6 6 7 8 8 8
14 14 12 10 10 9 8 7 6 5 5 6 6 6 6 6 5 5 6 5 5 4 4 3 2 2 2 3 4 4 5 5 6 6 5 6 5 5 5 5 5 5 5 6 7 8 8 9 8 9 8 8 8 9 9 8 8 7 7 7 7 9 7
8 10 11 12 12 12 11 9 7 6 5 6 5 6 5 6 5 4 4 4 4 3 3 2 2 2 3 4 4 5 6 6 7 7 7 6 6 6 6 5 5 6 7 10 12 11 10 10 8 10 9 7 9 9 9 9 9 8 8 8 9 7 9
11 11 11 11 11 12 11 10 9 7 6 6 6 6 6 5 6 6 5 3 3 3 2 1 2 5 5 4 4 5 6 6 7 7 8 8 7 6 7 6 6 11 13 13 12 13 13 14 13 11 10 8 9 9 9 9 9 8 9 10 10 9 10
12 13 13 12 12 13 13 11 10 9 8 7 8 6 6 6 4 4 5 5 3 1 0 1 4 6 7 9 6 5 5 6 6 7 7 8 8 8 6 6 6 8 10 10 10 13 13 14 14 13 14 13 11 10 10 11 10 8 9 9 9 9 10
10 12 14 15 13 12 12 11 11 10 10 8 7 6 5 5 5 5 4 4 2 0 0 3 5 7 8 9 9 7 5 6 6 6 7 8 8 7 7 7 6 6 6 7 8 9 11 14 15 15 15 15 15 15 14 13 12 11 10 10 11 11 10
9 7 5 5 5 8 10 10 10 9 10 8 7 7 6 6 5 4 5 4 2 0 1 4 6 8 9 10 11 10 6 6 7 7 7 8 8 8 7 8 8 6 6 11 11 9 8 9 12 15 15 16 16 16 15 16 16 15 12 12 13 14 12
14 13 12 12 10 9 10 11 10 9 8 7 7 6 6 6 5 5 4 4 2 2 2 5 7 8 10 11 12 10 6 7 7 8 8 8 8 9 9 9 9 9 6 7 8 9 8 9 9 10 10 10 10 12 14 16 16 18 16 14 13 15 13
11 13 12 12 11 10 9 8 9 8 8 8 8 8 8 6 5 5 4 4 3 2 3 6 7 9 10 12 13 10 6 7 7 7 8 8 9 10 9 9 9 10 9 8 7 9 9 9 9 10 11 11 11 11 10 10 10 11 11 11 12 13 13
2 2 6 9 10 10 9 10 10 7 6 6 6 6 4 6 6 5 4 4 3 3 4 8 8 9 11 11 12 7 6 7 8 8 8 9 9 9 8 9 9 10 10 9 10 14 13 11 11 12 13 12 12 11 11 10 13 14 13 13 13 13 11
11 8 7 7 4 7 10 9 8 7 8 7 7 7 7 5 6 6 4 4 4 4 4 7 8 10 10 12 9 6 6 7 7 8 9 9 9 9 8 8 9 9 10 10 12 14 15 14 12 13 13 13 11 11 11 7 13 17 19 20 21 22 23
14 14 13 12 9 7 7 7 7 6 9 8 7 7 6 5 4 5 5 5 6 4 4 6 8 9 10 11 10 7 7 7 9 9 10 9 8 9 9 16 16 11 11 10 12 14 13 11 12 12 13 14 14 13 11 7 8 9 14 19 21 22 22
13 13 11 10 10 11 10 10 8 7 7 7 7 6 5 6 4 4 5 5 8 5 4 5 7 9 10 11 9 6 7 7 9 10 10 10 8 8 9 10 16 16 14 14 17 17 17 14 13 13 12 13 15 14 10 6 10 11 9 10 11 12 14
11 12 10 7 8 9 8 8 8 8 7 7 7 5 4 5 6 6 6 5 5 4 3 4 4 9 10 11 12 9 7 8 10 12 10 10 11 10 9 10 11 15 17 18 19 20 19 19 16 15 13 15 16 15 7 9 11 11 12 11 11 11 13
13 12 12 11 10 8 8 9 7 6 6 4 4 4 4 5 5 5 4 4 4 3 3 3 4 9 10 12 13 12 8 9 10 11 11 11 10 11 10 9 9 13 18 19 19 20 21 20 20 17 15 15 15 13 12 12 13 14 13 11 10 11 11
11 11 9 10 11 9 6 7 8 7 6 6 5 5 4 4 4 4 4 4 3 4 3 4 4 7 11 13 13 15 10 10 11 12 13 11 10 9 10 9 8 10 14 17 17 19 20 20 21 16 16 18 20 19 16 12 11 10 11 11 10 11 11
12 9 9 10 11 9 5 5 4 4 5 4 5 4 4 4 4 4 4 6 4 3 3 3 6 7 11 14 15 16 17 15 17 13 12 13 12 12 11 12 13 18 20 20 20 20 21 22 20 17 23 22 22 22 19 14 13 12 12 11 11 12 12
9 10 10 8 8 8 7 5 4 5 5 5 5 5 5 4 3 3 5 6 6 5 3 3 6 10 11 15 16 17 18 19 19 13 12 12 12 11 10 9 9 14 18 20 22 22 22 22 19 23 24 24 23 22 16 14 13 13 13 13 14 14 13
Wind_Direction
171 189 202 207 179 164 127 207 310 356 3 30 63 59 69 101 100 83 80 78 74 63 65 61 63 56 62 46 47 46 39 41 44 44 20 16 8 342 342 312 251 223 227 217 215 227 285 310 302 319 305 311 293 254 239 241 230 214 211 214 220 218 215
170 174 169 146 152 148 137 80 55 359 17 7 26 74 67 100 97 104 87 77 73 63 68 63 59 59 60 55 42 39 40 36 33 32 47 23 15 0 345 355 333 305 277 234 237 214 227 270 285 277 292 320 325 276 269 272 268 243 226 216 213 220 219
154 128 141 151 167 157 163 195 152 65 14 46 44 70 110 87 98 95 87 88 91 84 75 74 62 53 50 56 56 58 52 54 32 37 36 12 26 7 13 339 2 350 333 284 190 218 233 219 252 277 297 313 305 297 336 319 294 267 253 235 220 215 215
168 151 143 161 157 152 181 205 186 210 310 233 12 30 72 93 98 91 98 92 84 84 83 79 72 75 70 70 63 58 52 53 43 46 38 31 19 19 14 14 357 344 334 321 318 307 279 269 246 242 258 260 262 287 278 284 313 292 273 258 241 229 217
165 166 172 175 179 179 188 191 211 160 216 314 18 78 83 47 98 85 94 95 90 92 91 107 98 92 85 72 54 56 57 61 57 55 48 32 24 25 19 5 357 330 323 327 322 306 315 313 308 302 287 285 273 241 277 284 265 266 257 245 233 227 220
170 175 181 177 178 177 181 174 165 197 223 186 239 198 247 106 98 81 63 70 62 56 65 62 60 64 60 57 62 54 47 43 46 55 55 41 40 36 0 355 354 351 342 331 322 324 313 290 269 292 289 271 272 281 272 275 289 280 244 246 237 235 232
176 179 184 181 183 183 178 177 177 186 190 199 197 209 197 173 95 114 108 101 107 102 89 85 71 56 48 47 43 37 30 33 48 50 57 35 40 34 18 16 0 349 345 343 335 332 332 325 313 296 298 287 267 275 282 278 259 294 288 249 235 239 240
175 181 188 185 177 179 191 178 184 177 181 199 195 212 153 140 133 122 127 125 129 82 68 62 70 79 75 66 59 45 29 25 39 42 42 46 32 20 19 12 354 357 349 345 348 344 342 336 329 322 313 304 288 262 272 255 271 236 259 273 235 252 239
179 177 181 184 185 183 181 181 186 186 195 184 192 154 174 149 139 127 103 102 82 65 51 45 39 48 58 73 82 79 49 20 33 33 33 50 27 9 10 357 30 357 340 348 351 351 352 339 334 335 330 316 306 298 283 289 265 264 240 256 286 237 248
175 181 186 188 185 187 183 186 179 192 179 167 174 163 153 148 142 140 125 118 82 80 61 54 60 51 45 37 23 16 35 105 99 60 14 33 8 7 5 12 2 334 325 337 347 348 337 334 329 325 327 322 320 306 301 284 284 287 278 211 249 285 232
186 188 182 184 177 173 188 188 172 153 185 180 163 158 147 148 155 136 132 111 93 75 96 82 68 69 57 27 6 349 331 5 28 39 35 47 326 323 16 338 331 323 282 323 320 316 323 321 319 324 324 322 321 308 301 292 289 251 274 235 222 260 296
193 186 186 177 167 175 181 181 178 184 152 148 143 140 142 144 137 120 112 95 77 86 56 52 58 43 39 4 345 338 334 352 351 341 333 354 317 338 327 317 299 294 285 288 281 280 291 308 308 311 314 318 314 311 309 304 294 276 188 284 250 245 260
189 185 182 173 176 181 179 171 167 158 172 152 145 145 145 146 140 116 100 112 95 64 26 356 356 342 10 1 360 350 334 348 346 336 329 337 333 329 321 316 308 301 283 278 286 281 273 268 282 301 303 302 299 296 306 300 291 290 294 289 286 271 250
188 184 178 181 177 179 172 169 170 167 143 152 143 143 145 142 130 127 123 125 136 161 160 292 5 23 19 4 346 342 330 341 341 329 332 329 330 324 318 314 313 302 290 287 273 273 274 273 276 269 273 285 287 294 296 298 295 297 296 290 276 282 267
178 171 175 179 180 174 168 169 162 148 156 160 150 145 144 140 130 127 126 134 155 150 4 24 11 29 9 355 333 325 332 325 325 317 325 318 318 314 314 313 312 315 307 295 286 277 266 275 278 287 284 273 280 283 280 288 290 294 296 307 307 298 290
172 174 172 178 178 173 168 159 158 153 153 151 150 145 148 145 142 137 140 143 104 76 77 12 6 72 91 276 297 308 303 306 296 296 300 295 299 304 306 304 307 311 312 310 307 292 282 276 266 267 274 275 284 284 287 287 291 288 296 296 302 299 298
172 173 173 172 170 170 161 157 156 150 149 145 147 150 144 147 142 137 124 103 112 121 103 68 353 234 257 262 272 275 286 287 284 282 282 285 288 287 282 290 293 304 312 311 308 309 296 279 275 272 273 274 278 286 280 277 277 292 291 291 298 314 311
192 174 168 158 160 157 156 149 152 145 140 145 147 140 135 132 126 131 138 139 132 131 159 177 215 275 285 267 259 269 274 277 277 279 278 279 280 279 277 270 282 296 299 299 301 300 303 301 294 291 287 287 280 276 280 276 279 279 299 299 299 295 307
194 204 160 153 152 153 150 149 148 148 147 146 144 143 140 138 141 141 135 141 148 168 178 188 199 227 243 255 261 266 269 271 274 274 276 274 271 269 270 274 283 291 291 291 294 295 292 289 294 292 290 285 281 277 276 282 278 287 286 285 288 295 294
156 162 165 155 148 148 151 153 150 155 154 143 142 135 140 136 138 134 143 145 161 173 185 192 205 221 242 261 269 272 274 269 266 264 259 259 259 260 267 281 290 292 291 292 293 295 299 297 291 289 287 288 284 283 283 286 288 282 277 280 283 278 287
170 163 158 157 154 150 146 151 155 150 138 139 145 150 152 146 148 137 156 161 176 172 177 192 220 246 255 264 265 267 265 269 269 267 265 262 262 261 262 268 276 283 286 288 288 290 294 294 298 291 292 297 299 298 293 290 287 283 280 279 275 287 281
149 153 156 155 154 153 152 152 149 149 147 143 150 153 150 143 142 142 151 160 163 162 159 197 218 239 272 282 270 273 278 277 277 278 275 271 266 265 264 262 264 265 268 274 280 286 286 288 293 291 286 283 283 283 284 282 280 278 277 276 277 273 280
164 154 151 158 160 155 150 148 148 150 151 151 149 150 147 152 152 157 150 132 142 156 180 200 250 274 278 278 285 288 285 284 281 280 281 279 273 263 260 257 256 261 267 270 271 272 274 276 274 273 279 281 279 278 276 279 276 276 277 274 271 275 273
167 166 162 160 164 158 153 148 147 148 149 151 154 156 148 146 145 141 140 148 140 130 183 251 291 298 299 296 294 286 282 282 278 276 274 273 274 271 263 255 253 256 260 266 266 264 267 268 267 268 270 271 273 275 282 276 271 268 270 269 271 266 265
175 174 166 165 169 160 145 144 148 149 148 152 155 138 133 141 140 143 133 122 121 140 33 281 292 293 294 296 295 290 287 285 284 279 274 272 271 271 269 265 257 253 255 254 258 262 263 262 263 265 265 265 265 263 259 265 274 274 264 268 267 261 266
163 159 175 147 144 138 140 143 143 143 153 155 134 134 144 139 147 141 130 129 122 171 219 263 277 289 291 291 291 291 286 281 281 281 278 276 274 273 271 270 270 257 253 257 261 264 263 266 265 264 264 265 265 260 258 257 253 256 270 267 268 270 258
175 169 159 149 153 155 154 152 151 146 133 125 132 135 143 142 143 143 141 137 172 195 239 266 277 285 290 289 289 289 283 282 278 275 276 275 275 274 271 273 275 273 263 259 258 260 259 261 265 266 264 261 260 259 256 252 254 255 253 257 258 259 260
180 167 160 153 153 155 149 134 131 134 138 144 142 147 150 145 157 150 145 158 161 210 249 265 277 283 285 286 287 290 282 278 275 273 271 270 269 270 270 270 270 272 272 263 251 249 254 256 261 264 264 263 259 258 253 250 249 253 255 253 256 256 263
30 5 128 136 140 142 137 136 132 130 124 129 132 133 140 144 156 162 171 143 148 230 260 265 276 282 286 288 291 292 284 276 275 272 271 270 268 267 267 266 270 270 269 266 259 252 253 260 263 266 267 267 265 260 255 246 244 245 249 256 260 263 263
120 118 103 97 127 137 129 122 124 132 130 140 144 155 166 179 172 163 153 153 176 222 251 269 276 283 289 294 299 288 282 279 273 274 270 269 268 268 267 266 267 269 267 265 262 257 255 254 262 264 267 269 267 264 260 250 239 241 243 248 252 254 259
147 152 150 150 152 125 104 112 135 143 141 150 162 180 179 171 165 150 161 186 189 202 240 265 277 288 293 297 296 291 284 282 280 277 277 270 268 267 262 266 272 273 272 269 268 263 260 259 266 266 268 269 269 264 264 262 264 254 243 245 247 250 250
150 148 146 146 142 142 148 151 149 149 151 162 177 177 170 164 162 178 190 195 202 207 229 266 282 288 292 296 299 292 289 286 287 282 281 280 269 266 268 266 268 271 272 275 275 273 271 269 270 269 268 268 267 265 261 263 263 265 258 254 248 245 247
144 136 136 139 138 140 137 132 147 159 170 169 165 170 166 161 171 197 202 199 215 213 221 261 276 284 292 294 295 295 290 292 287 286 283 284 285 275 267 268 263 259 261 263 265 266 267 265 267 270 268 266 268 266 268 262 259 260 261 251 254 249 254
142 136 141 143 139 133 138 146 154 158 168 157 134 143 165 176 187 210 211 210 220 245 212 240 275 283 288 291 291 292 288 280 281 283 286 284 279 281 275 262 258 257 259 260 261 261 262 261 260 263 259 260 259 267 272 265 264 258 262 261 254 252 251
123 127 135 128 128 142 156 147 158 170 155 157 160 160 168 180 192 231 257 254 239 249 262 253 275 283 284 288 288 288 289 283 281 287 286 280 277 272 270 269 262 253 251 254 256 258 259 259 258 258 258 257 259 257 258 258 260 257 256 258 256 254 250
130 129 130 132 139 150 150 148 150 143 147 147 150 161 180 187 198 239 273 274 262 264 277 291 287 290 289 291 294 294 289 287 285 281 280 282 279 276 276 274 274 274 273 272 269 266 264 262 262 260 261 260 260 261 260 259 258 257 256 256 255 253 249
114 116 129 143 141 140 153 158 145 153 146 147 154 169 206 196 200 238 260 279 288 293 297 286 289 289 294 296 296 293 290 287 285 281 281 281 285 282 282 277 279 283 282 279 275 271 268 265 262 261 259 257 255 254 254 253 250 249 250 249 248 249 248